| time (UTC) | temp C | wind direction | speed KPH | gust KPH | rain 1hr cm | rain 24hr cm | rain mn cm | humidity % | barometer mb |
| 20260509010157 | 14 | 264 | 0.0 | 1.6 | 0.00 | 0.00 | 0.00 | 56 | 1006.0 |
| 20260508234502 | 17 | 243 | 0.0 | 9.7 | 0.00 | 0.00 | 0.00 | 39 | 1005.6 |
| 20260508231503 | 17 | 302 | 1.6 | 14.5 | 0.00 | 0.00 | 0.00 | 34 | 1005.6 |
| 20260508230002 | 17 | 300 | 1.6 | 17.7 | 0.00 | 0.00 | 0.00 | 35 | 1005.6 |
| 20260508221507 | 18 | 70 | 3.2 | 12.9 | 0.00 | 0.00 | 0.00 | 36 | 1005.8 |
| 20260508220003 | 17 | 309 | 4.8 | 12.9 | 0.00 | 0.00 | 0.00 | 34 | 1006.0 |
| 20260508204507 | 17 | 200 | 6.4 | 19.3 | 0.00 | 0.00 | 0.00 | 32 | 1006.4 |
| 20260508203017 | 17 | 287 | 4.8 | 16.1 | 0.00 | 0.00 | 0.00 | 34 | 1006.5 |
| 20260508194509 | 17 | 277 | 6.4 | 16.1 | 0.00 | 0.00 | 0.00 | 34 | 1007.2 |
| 20260508193142 | 17 | 53 | 3.2 | 22.5 | 0.00 | 0.00 | 0.00 | 35 | 1007.6 |
| 20260508190002 | 16 | 307 | 4.8 | 14.5 | 0.00 | 0.00 | 0.00 | 34 | 1008.1 |
| 20260508184502 | 16 | 291 | 1.6 | 16.1 | 0.00 | 0.00 | 0.00 | 34 | 1008.3 |
| 20260508171657 | 15 | 165 | 1.6 | 8.0 | 0.00 | 0.00 | 0.00 | 39 | 1009.6 |
| 20260508170157 | 15 | 93 | 1.6 | 11.3 | 0.00 | 0.00 | 0.00 | 38 | 1009.8 |
| 20260508160004 | 13 | 255 | 4.8 | 12.9 | 0.00 | 0.00 | 0.00 | 44 | 1010.6 |
| 20260508154656 | 12 | 338 | 3.2 | 12.9 | 0.00 | 0.00 | 0.00 | 44 | 1010.6 |
| 20260508153154 | 12 | 39 | 1.6 | 12.9 | 0.00 | 0.00 | 0.00 | 44 | 1010.7 |
| 20260508150004 | 11 | 269 | 0.0 | 8.0 | 0.00 | 0.00 | 0.00 | 50 | 1010.9 |
| 20260508133014 | 8 | 231 | 0.0 | 3.2 | 0.00 | 0.00 | 0.00 | 71 | 1011.4 |
| 20260508130155 | 6 | 205 | 0.0 | 0.0 | 0.00 | 0.00 | 0.00 | 78 | 1011.4 |
| 20260508080002 | 5 | 286 | 0.0 | 0.0 | 0.00 | 0.00 | 0.00 | 83 | 1010.7 |
| 20260508061658 | 4 | 294 | 0.0 | 0.0 | 0.00 | 0.00 | 0.00 | 88 | 1010.7 |
| 20260508060146 | 4 | 294 | 0.0 | 0.0 | 0.00 | 0.00 | 0.00 | 87 | 1010.9 |
| 20260508051508 | 5 | 294 | 0.0 | 0.0 | 0.00 | 0.00 | 0.00 | 82 | 1011.0 |
| 20260508050011 | 6 | 294 | 0.0 | 0.0 | 0.00 | 0.00 | 0.00 | 80 | 1010.9 |
| 20260508044515 | 6 | 294 | 0.0 | 3.2 | 0.00 | 0.00 | 0.00 | 78 | 1011.1 |
| 20260508033017 | 8 | 225 | 0.0 | 0.0 | 0.00 | 0.00 | 0.00 | 59 | 1010.6 |